Theta_e
317 322 320 320 322 321 319 319 320 320 321 321 321 320 319 318 319 319 319 319 322 323 324 325 325 325 326 326 326 327 329 330 331 332 333 334 336 337 338 339 339 338 338 337 335 334 335 336 336 335 335 332 329 328 328 327 327 326 325 324 324 326 328 327 325 324 325 325 326 326 326 326 325 323 322 322 321 320 319 317 313 311 310 310 310 311
323 327 322 320 321 320 320 320 320 321 321 322 322 322 321 319 319 319 319 318 321 324 325 324 324 324 324 324 325 326 327 328 330 331 332 334 336 337 338 338 338 338 337 337 335 334 335 335 335 333 332 330 327 326 327 327 326 326 325 323 323 324 326 325 323 323 324 324 324 324 324 323 322 321 321 321 319 318 315 312 309 308 310 310 309 308
325 324 320 318 319 319 320 320 320 320 322 324 324 325 324 320 320 321 320 319 320 324 325 324 324 324 323 323 324 324 325 326 328 329 331 334 334 334 336 337 338 338 337 336 334 334 334 334 334 332 329 324 321 320 323 325 326 328 328 327 326 325 324 324 324 325 325 324 325 325 322 320 320 321 322 322 321 320 316 312 308 308 311 313 312 309
323 322 318 316 317 319 319 319 319 320 322 323 323 326 324 321 320 322 321 319 320 323 325 324 324 324 323 323 323 323 324 324 325 327 329 331 329 328 331 334 335 336 337 336 334 334 333 333 333 333 329 322 317 315 319 326 329 330 331 330 328 326 324 322 323 326 327 325 326 326 324 323 323 323 323 323 321 318 315 311 308 308 311 313 314 312
321 320 317 315 317 319 319 318 317 319 322 324 324 324 322 321 320 320 321 321 321 322 322 323 325 325 324 324 323 322 322 322 324 326 327 328 325 325 330 331 331 333 335 335 334 333 333 333 334 333 331 325 320 318 320 326 330 330 329 326 326 325 322 319 318 322 324 325 327 327 327 326 325 325 323 322 319 313 309 309 308 309 311 313 314 313
319 318 317 316 317 318 318 318 317 317 320 324 326 324 321 321 321 319 320 324 327 324 319 324 330 327 324 325 324 323 322 322 322 323 324 326 326 326 329 329 329 330 331 331 331 332 333 334 334 334 333 330 327 325 324 323 325 325 324 321 320 320 317 315 314 317 320 323 326 327 328 327 325 325 322 319 316 311 308 309 309 310 311 312 313 313
319 316 317 317 317 318 319 318 317 317 318 320 324 324 322 321 321 319 320 324 327 324 318 323 330 328 325 325 325 324 323 322 322 322 322 324 326 326 327 327 328 328 327 328 329 330 331 331 332 333 334 333 331 328 327 326 325 322 320 318 318 317 314 313 314 316 319 322 324 325 326 327 325 324 322 318 315 312 310 310 311 311 312 312 313 313
319 317 318 318 318 319 318 318 318 318 317 319 322 323 323 322 321 321 322 324 324 323 322 322 327 330 328 326 325 324 324 323 323 323 321 322 324 326 327 327 327 327 327 327 326 327 328 329 329 331 332 333 333 331 329 328 328 325 322 321 321 319 314 312 314 315 319 323 325 325 325 326 325 324 322 318 314 313 312 311 311 311 312 313 313 312
318 318 317 318 319 318 316 316 318 318 319 320 320 321 321 322 322 323 324 325 324 327 329 325 326 330 328 326 325 325 325 325 325 325 322 321 322 324 326 327 328 327 326 325 325 325 326 328 329 330 330 331 332 332 330 329 329 328 327 326 325 323 316 312 313 314 316 319 323 325 323 323 321 320 319 316 314 315 314 313 312 312 312 313 313 313
318 318 316 317 318 317 316 316 318 320 321 319 317 319 322 324 328 329 325 325 329 331 329 324 325 330 327 325 327 327 326 326 325 324 322 321 322 322 323 325 327 327 326 325 325 324 324 325 327 329 330 330 330 331 330 329 330 329 327 328 329 326 321 316 315 316 315 315 317 320 319 318 317 316 314 313 314 316 316 315 313 312 312 312 313 313
317 317 317 317 317 316 316 317 317 318 319 319 320 323 328 329 332 335 331 332 335 329 324 323 326 332 329 325 327 327 324 324 324 324 322 321 321 322 322 322 324 326 325 325 324 324 324 323 324 326 328 329 330 331 330 329 329 329 327 328 330 328 324 321 321 322 321 318 318 320 320 318 316 314 314 314 317 319 320 318 314 312 312 312 313 313
316 317 317 317 317 317 319 319 317 316 316 319 323 326 330 330 330 333 334 335 333 325 323 324 324 328 330 327 326 325 324 323 322 322 322 321 321 321 322 322 322 324 325 324 324 324 324 323 323 323 324 326 328 330 330 330 330 330 328 329 330 329 325 322 323 326 327 324 324 326 327 324 320 317 318 320 322 324 324 322 319 315 312 312 313 313
317 317 316 316 317 317 321 322 320 320 320 321 325 328 329 330 331 331 330 331 328 324 323 324 324 326 327 327 327 326 326 323 320 321 321 320 321 321 322 322 322 322 323 323 323 323 323 323 323 323 323 323 325 328 330 329 329 329 330 330 330 328 325 323 323 326 329 328 328 329 329 328 327 325 326 327 328 327 326 327 326 320 313 311 313 313
327 325 319 317 319 318 319 321 321 321 322 321 325 329 328 328 330 330 328 326 325 325 323 322 326 328 325 328 330 327 324 321 320 320 320 320 321 321 321 322 321 321 322 322 322 322 322 323 323 323 323 323 324 327 329 329 329 329 329 330 330 328 327 326 325 325 327 328 328 328 328 328 328 329 328 329 329 329 328 328 328 325 317 312 312 313
327 326 320 318 318 318 317 318 318 320 322 321 322 327 327 326 327 329 331 329 325 327 327 324 326 327 326 330 329 323 320 320 320 320 320 320 321 321 321 321 321 321 321 321 321 321 321 322 322 323 323 323 324 325 327 327 328 328 328 329 329 328 327 327 327 325 325 324 324 325 326 326 327 328 328 328 329 330 330 329 328 327 320 313 312 313
321 320 319 317 316 317 318 316 317 322 326 322 320 325 325 324 327 327 327 329 328 328 328 325 325 325 326 328 325 321 320 320 320 320 320 320 320 320 321 320 320 321 321 321 321 321 321 321 321 322 322 322 322 323 324 325 325 326 327 327 327 327 327 327 327 326 326 325 323 324 326 327 327 327 328 329 329 328 328 328 327 327 322 315 313 312
320 321 320 318 317 316 316 315 316 320 324 323 322 324 320 320 329 330 324 326 330 329 325 324 326 327 326 326 325 323 322 321 319 319 319 320 320 320 320 320 320 320 320 320 320 320 320 321 321 321 321 321 321 322 322 323 324 324 325 325 326 326 325 326 326 325 326 326 325 326 326 326 326 327 327 328 327 326 325 325 326 326 324 321 317 313
320 324 322 319 319 317 315 316 316 315 319 325 323 321 320 321 328 332 328 327 329 327 324 324 327 328 326 325 325 323 322 321 320 319 318 319 319 319 319 320 319 320 320 319 319 319 320 320 320 320 320 321 320 320 321 322 322 323 323 324 324 324 325 325 325 325 325 325 325 326 325 324 325 327 326 325 326 326 325 324 325 326 326 324 322 317
322 326 324 320 320 318 316 316 318 317 315 320 319 318 325 328 327 328 328 327 328 326 325 325 325 326 325 325 324 321 320 321 321 320 319 318 319 319 319 319 319 319 319 319 319 319 319 319 319 319 319 319 320 319 320 320 320 321 321 321 322 323 324 324 324 324 324 324 324 324 325 324 325 326 325 324 325 325 325 325 325 326 326 325 325 323
324 328 326 322 320 319 320 320 321 321 317 316 318 320 325 327 325 327 325 324 327 328 326 325 324 325 326 325 322 320 321 322 322 322 321 319 318 319 318 318 319 319 318 317 318 318 319 319 318 318 319 318 319 319 319 319 319 319 319 319 320 321 322 322 323 322 322 322 322 322 323 323 324 325 325 325 324 324 325 326 325 325 325 325 325 325
326 329 326 324 320 318 320 319 318 320 319 319 321 323 324 324 324 328 326 323 325 327 326 326 325 325 326 324 320 320 322 322 322 322 320 318 318 319 318 318 318 318 317 317 317 318 318 318 317 317 318 319 318 318 318 319 319 319 319 318 319 319 320 320 319 319 319 319 319 319 320 321 322 323 324 325 325 325 325 325 325 324 324 324 324 324
326 329 328 326 323 319 319 318 317 318 319 321 322 321 322 325 327 328 327 324 327 327 325 326 326 325 327 325 320 320 320 319 319 319 318 317 318 317 317 318 318 318 317 316 317 317 317 317 317 317 317 318 318 317 317 318 318 318 318 318 318 318 319 319 318 318 318 318 317 317 318 319 320 321 322 323 324 325 325 324 324 323 323 323 323 322
322 328 329 325 321 318 316 316 316 316 318 320 321 321 324 326 328 329 327 326 327 325 323 326 326 326 329 324 319 318 317 318 318 317 317 317 316 316 316 316 317 317 317 317 317 317 317 317 316 316 317 317 317 317 317 317 317 317 317 318 318 318 318 319 319 319 319 318 317 316 317 318 319 320 320 321 322 323 323 324 324 323 322 323 323 322
323 327 327 326 327 326 322 319 318 319 322 322 318 321 324 321 323 328 326 327 329 324 324 327 326 328 328 321 317 317 317 317 318 317 317 316 316 316 316 315 316 316 317 317 317 317 316 316 315 316 316 316 316 317 317 317 317 317 317 317 318 318 318 318 318 319 319 318 317 316 316 317 318 319 320 320 320 321 322 322 323 323 322 323 323 323
323 325 326 329 332 330 326 325 325 322 322 322 318 319 322 320 322 324 323 327 328 322 324 328 325 329 330 320 317 317 316 316 317 316 317 316 316 316 315 315 315 315 316 316 315 315 315 315 315 314 314 315 316 316 317 317 317 317 317 317 317 317 317 317 317 317 317 317 317 317 316 316 317 318 319 319 319 320 320 321 321 321 322 322 322 322
322 325 330 332 329 323 322 324 325 322 320 323 324 320 320 322 324 322 322 327 325 320 325 328 325 328 328 321 318 318 317 318 317 316 316 316 316 316 315 315 315 314 315 314 314 314 314 314 314 312 313 315 316 316 317 317 316 316 316 316 317 317 316 316 316 316 316 316 316 316 316 316 315 316 318 319 319 319 319 320 320 320 321 321 321 321
327 328 330 331 328 327 328 326 324 323 321 321 322 319 318 321 325 326 326 324 321 322 326 326 324 326 325 320 318 318 319 319 316 315 316 315 315 315 315 314 314 314 314 313 314 314 313 314 312 311 312 314 315 315 315 316 315 315 316 316 316 316 316 315 315 315 315 315 315 315 316 316 316 315 316 317 318 319 319 319 320 320 319 320 320 320
335 330 323 323 323 326 330 327 322 322 320 319 319 318 318 321 326 331 328 322 322 325 324 321 322 324 322 319 317 316 318 318 315 314 315 315 315 315 314 314 313 313 313 313 313 313 313 313 312 312 313 313 313 313 313 314 313 313 314 316 315 315 316 316 315 315 315 314 315 315 315 316 315 315 315 315 316 317 318 319 319 320 319 319 319 319
331 325 318 319 319 321 325 325 324 322 320 321 321 319 319 320 321 322 322 322 327 328 322 319 322 323 320 319 317 316 316 316 315 315 315 315 315 314 314 313 313 313 313 313 313 313 313 313 312 313 313 312 313 312 312 312 312 312 313 314 313 314 315 315 315 315 314 314 314 314 315 315 315 315 315 315 315 316 317 318 319 319 319 319 319 319
325 325 320 318 320 322 323 324 326 325 320 320 321 322 322 324 323 320 320 324 326 323 322 323 322 321 321 320 317 315 314 315 315 315 314 314 314 313 313 313 313 313 313 313 313 313 313 313 312 312 312 312 312 312 312 312 312 312 312 312 313 313 313 314 315 315 313 314 315 315 315 315 315 315 315 315 315 314 315 317 318 319 319 319 319 319
321 322 320 322 324 323 322 323 325 325 321 319 323 325 323 322 322 320 320 322 321 318 321 324 320 318 319 317 315 314 314 315 315 314 314 314 313 312 313 313 313 313 312 312 312 312 313 312 312 312 312 312 312 311 311 311 311 310 311 312 312 312 312 313 314 313 312 313 314 314 314 315 315 315 315 315 315 314 315 316 317 318 318 318 318 318
321 321 324 329 326 321 322 323 323 325 322 319 324 327 324 320 319 317 319 321 318 318 321 320 319 321 320 315 313 313 314 314 314 314 314 314 313 312 312 312 312 311 311 312 311 312 312 312 312 312 311 311 311 311 310 310 309 309 310 310 310 311 312 312 313 312 312 312 313 313 314 315 315 314 314 314 315 315 315 316 316 317 317 317 317 317
324 325 322 323 324 323 324 322 322 326 324 322 326 327 322 321 321 318 319 320 318 320 323 321 321 323 318 314 314 314 312 313 314 313 314 313 313 312 312 312 311 311 311 311 311 312 312 311 312 311 311 311 311 310 310 309 309 309 309 308 308 309 310 311 311 311 311 312 312 312 312 314 314 313 312 313 314 314 315 315 315 316 316 317 317 317
325 327 321 318 321 325 325 324 325 324 322 325 330 327 322 323 321 316 316 318 319 321 322 322 322 320 316 314 316 315 312 313 314 313 313 313 313 313 312 312 311 311 311 311 311 312 311 312 312 310 309 310 310 309 309 309 309 309 308 308 308 308 308 308 308 309 309 311 311 311 311 313 314 312 311 312 313 313 314 314 314 315 315 316 317 317
323 323 321 319 319 323 328 326 324 323 323 327 329 323 321 324 323 318 316 319 321 320 320 322 321 318 315 313 313 313 313 313 314 313 313 313 313 313 312 311 311 312 312 311 312 312 312 312 312 310 309 309 309 309 309 309 309 308 308 308 308 308 308 307 307 307 307 308 309 310 311 312 313 312 311 311 311 311 312 313 314 315 315 315 316 317
325 323 323 323 320 321 324 319 316 320 323 324 323 318 317 320 321 318 315 316 319 318 319 322 318 314 312 312 312 313 313 314 313 313 314 313 313 313 312 312 312 312 312 312 312 312 312 312 311 310 309 309 309 309 309 309 308 308 308 308 308 308 308 307 307 307 306 306 307 309 310 311 311 310 310 311 311 311 311 312 313 314 315 315 316 317
324 324 325 324 317 315 319 319 321 321 319 322 324 319 316 316 317 317 316 315 316 314 314 319 317 312 311 312 313 314 313 314 314 313 313 313 313 313 312 312 313 312 312 312 312 312 312 311 311 310 309 309 309 309 309 308 308 308 307 307 308 308 308 308 307 307 306 306 306 307 309 311 311 310 309 310 311 311 311 311 311 312 313 314 315 316
316 318 324 326 319 317 319 323 324 320 319 326 326 318 315 314 313 315 318 319 317 313 312 315 315 312 311 312 312 313 314 315 315 313 313 313 313 313 313 313 313 312 312 312 312 312 312 311 310 310 309 309 309 309 309 308 307 307 307 307 307 307 307 307 307 307 306 306 306 306 308 310 310 309 309 309 310 311 311 312 311 310 311 312 313 314
316 319 327 327 321 320 321 321 321 320 321 327 326 316 312 313 312 314 319 321 319 314 312 313 312 311 312 312 311 313 316 319 318 315 313 313 313 313 313 313 313 312 312 311 311 311 311 310 310 309 309 309 309 309 308 307 307 307 307 307 307 307 307 307 306 306 306 306 305 306 307 309 309 309 308 307 308 310 311 312 312 310 310 310 311 313
321 322 325 324 322 322 321 321 322 321 320 324 325 318 313 313 314 316 319 323 321 315 312 313 312 311 312 312 311 313 317 320 319 315 313 313 313 313 313 313 312 312 311 311 311 310 310 310 310 309 309 309 308 308 307 306 307 307 307 307 306 306 306 306 306 306 306 306 305 305 307 308 309 308 307 306 308 309 311 312 312 311 310 310 311 312
324 323 321 323 326 324 319 320 321 322 322 323 321 317 312 312 316 320 322 323 319 314 313 313 312 312 312 312 312 313 314 315 315 314 313 313 313 312 312 312 311 311 311 310 310 310 310 310 309 309 308 307 307 307 306 306 306 306 306 306 306 306 306 306 306 306 306 306 306 306 307 307 307 307 306 307 308 309 310 311 311 311 310 311 311 312
324 322 319 321 325 323 321 321 320 320 322 319 315 313 312 315 321 325 323 318 314 313 314 312 312 313 312 312 313 313 313 313 313 313 312 312 312 312 312 311 311 311 310 310 310 310 309 309 309 308 307 306 306 306 306 306 306 305 305 306 305 305 305 305 305 305 306 306 306 305 306 306 306 306 306 307 308 309 309 310 311 312 311 310 311 311
321 322 323 323 322 320 318 317 317 320 321 316 314 315 315 319 324 321 315 314 314 313 313 312 312 313 312 312 313 312 313 313 312 312 312 312 312 312 311 311 311 310 310 310 310 309 309 309 308 306 305 305 305 305 305 305 305 305 305 305 305 305 305 305 305 305 306 306 305 305 305 305 305 306 307 307 308 309 309 309 310 311 311 311 310 311
318 319 324 324 320 319 319 320 323 325 323 316 315 317 317 318 318 314 312 314 314 312 312 312 312 312 312 312 313 312 312 312 312 312 312 311 311 311 311 311 310 310 310 309 309 309 308 308 306 304 304 304 304 305 305 305 305 305 305 305 305 305 305 305 305 306 306 306 305 305 306 306 306 306 307 307 308 308 308 309 309 309 310 310 310 310
319 318 320 321 319 319 324 328 325 320 317 315 315 316 316 315 314 313 313 313 312 312 313 312 312 312 312 312 312 312 312 312 313 313 312 311 311 311 311 310 309 309 309 308 308 308 307 306 305 304 303 304 304 305 305 304 305 305 305 305 305 305 305 305 305 305 305 305 305 305 306 306 306 306 306 306 307 307 307 308 308 308 308 309 309 309
317 315 317 318 317 317 318 320 316 313 316 317 315 315 315 315 315 314 313 313 312 313 312 312 312 313 312 312 312 312 312 313 313 312 311 311 311 311 310 310 309 309 308 308 307 306 305 304 304 304 304 304 305 305 304 305 305 305 305 305 306 305 305 305 305 305 305 305 306 306 306 306 306 306 306 306 306 306 306 307 307 308 308 309 309 309
315 314 316 316 316 318 320 318 314 313 316 316 315 316 316 315 315 314 314 314 313 312 312 312 312 312 312 312 312 312 312 313 312 312 311 311 310 309 309 309 308 308 308 307 305 305 304 304 304 304 304 305 305 304 304 304 305 305 305 305 305 305 305 304 304 305 305 305 305 306 306 306 306 306 306 306 306 306 306 306 307 308 309 309 309 309
316 314 319 320 319 320 321 317 313 313 315 315 316 316 315 314 314 314 313 313 312 312 313 312 312 312 312 312 312 312 312 311 311 311 311 310 310 309 308 308 308 307 306 305 305 304 304 304 304 304 304 304 304 304 304 304 304 305 305 305 304 303 303 303 304 304 305 305 306 306 306 306 306 306 306 306 306 306 306 306 306 307 308 309 309 309
315 315 319 319 318 318 316 313 312 313 314 314 314 315 314 313 313 313 313 313 313 313 313 312 312 312 312 312 312 312 311 310 310 310 311 310 309 309 308 307 307 306 306 305 305 304 304 304 304 304 304 304 304 304 304 304 304 304 304 304 303 301 300 302 303 304 305 306 306 306 306 306 306 306 306 305 305 305 306 307 306 306 307 307 308 307
315 318 317 315 317 321 319 315 314 316 315 313 313 313 313 312 313 312 312 313 313 313 312 312 312 312 312 312 312 311 310 310 310 310 310 310 309 308 307 307 306 306 306 305 304 304 304 304 304 304 304 304 304 304 304 304 304 304 304 303 302 300 299 301 302 303 305 306 306 305 305 305 305 305 305 305 305 305 306 306 306 306 306 306 306 306
315 318 318 318 322 323 319 315 313 315 315 313 312 313 312 312 312 312 312 312 313 313 312 312 312 312 312 312 311 310 310 310 310 310 310 309 308 308 307 306 306 305 305 304 304 304 304 304 304 304 304 304 304 304 304 304 304 304 304 303 301 299 299 301 302 303 305 305 305 305 305 304 304 305 305 305 305 305 306 305 305 305 305 305 305 306
Wind_Speed
4 4 3 3 3 2 5 6 6 5 6 5 4 5 5 6 4 6 10 11 17 18 10 17 19 15 16 14 16 27 33 28 22 22 21 21 23 24 26 25 24 25 25 23 22 19 18 18 18 14 10 10 11 12 12 12 12 12 12 11 10 10 10 9 9 9 9 9 9 8 8 7 5 4 4 3 3 3 2 2 1 2 2 2 2 2
5 5 2 2 3 6 6 5 6 7 7 6 5 4 5 5 3 4 9 12 14 15 9 16 20 15 14 12 17 27 27 21 19 20 19 21 23 24 27 26 24 25 23 21 19 18 17 16 16 15 13 11 11 13 14 14 14 14 13 11 11 10 10 9 9 10 10 9 8 8 7 6 5 4 3 3 2 2 2 1 1 1 1 1 1 1
6 3 3 5 7 9 8 8 8 8 7 6 4 4 4 3 1 3 7 10 11 12 8 13 16 12 12 12 17 22 19 18 22 22 20 23 23 21 23 24 25 25 23 19 17 18 17 15 14 14 13 11 10 14 17 16 15 13 10 9 9 9 10 10 10 10 9 8 7 6 6 5 4 4 3 4 4 5 5 4 2 1 1 1 2 3
4 2 4 11 10 9 9 8 8 7 5 4 4 4 1 2 3 1 3 5 8 11 8 9 13 9 9 11 14 19 21 22 24 25 24 24 21 17 15 16 19 23 21 18 16 17 16 14 14 13 12 10 9 13 17 17 13 10 8 7 8 8 10 11 12 10 8 8 7 7 7 6 5 5 5 5 5 6 6 5 4 3 2 0 2 2
3 1 5 12 9 8 8 6 7 6 5 4 2 4 1 1 3 2 0 4 5 9 11 7 9 7 7 9 9 13 20 22 23 26 26 24 22 17 14 12 12 15 15 14 14 15 15 14 13 10 9 9 8 12 17 18 14 12 12 12 12 12 13 14 15 14 11 10 10 9 10 9 9 8 8 7 7 7 6 5 6 5 3 2 1 1
3 2 7 9 7 8 7 4 4 4 3 5 3 3 2 2 2 1 4 6 4 2 3 3 7 4 6 8 7 6 11 14 18 22 21 22 23 19 15 12 10 11 9 7 6 7 9 9 8 7 8 8 8 11 16 19 18 17 17 17 18 18 18 18 18 17 16 15 14 13 13 12 11 11 10 9 7 7 6 6 6 6 5 4 3 2
3 5 6 7 6 8 7 4 4 2 5 3 4 2 2 5 5 3 4 6 2 0 3 1 7 2 3 6 5 4 8 10 11 15 16 19 20 19 18 15 13 13 12 10 8 5 2 1 1 4 7 8 7 8 13 18 18 18 18 17 19 21 21 20 20 19 18 17 16 15 14 14 13 12 11 10 9 9 9 8 7 7 6 5 5 4
1 6 7 7 7 7 6 4 5 3 6 1 5 1 5 6 6 3 4 4 3 2 4 5 7 5 1 4 6 5 8 9 9 10 14 18 18 16 17 17 17 17 16 15 14 12 9 6 4 3 5 7 7 8 11 16 16 14 13 14 15 19 22 21 21 21 19 18 17 16 16 16 16 15 13 12 12 12 11 10 9 8 8 7 7 7
1 4 5 6 8 5 3 3 5 3 6 2 5 3 5 5 5 4 4 3 3 3 4 4 5 6 2 3 6 5 8 9 8 7 9 16 19 18 16 16 19 20 18 18 18 17 15 12 8 4 3 4 7 10 13 15 15 13 11 12 14 16 20 22 22 21 20 19 18 18 18 17 17 16 15 14 14 15 13 11 12 11 10 9 8 8
3 5 5 5 5 3 1 3 4 4 3 2 2 3 5 5 5 4 5 3 3 5 3 6 2 5 1 4 5 4 6 6 5 4 6 13 18 19 19 17 17 18 18 18 18 19 18 17 14 7 3 4 8 12 15 16 15 14 14 15 16 16 19 21 21 20 19 20 20 20 20 19 18 17 17 17 17 16 14 13 13 13 13 12 11 10
4 7 8 5 2 1 1 3 5 5 2 1 3 5 6 6 5 4 3 3 4 3 3 5 3 6 2 2 4 1 2 2 2 3 5 11 18 20 21 22 20 17 18 19 20 20 20 19 17 14 10 6 5 11 15 14 14 16 16 17 18 18 18 20 21 20 19 20 21 21 21 21 20 19 19 19 19 18 16 15 15 15 15 15 14 13
4 7 5 2 4 5 5 5 7 8 7 5 5 5 5 4 5 5 5 5 5 1 3 3 5 7 4 1 3 3 3 2 2 3 4 9 16 20 21 24 24 20 19 20 20 21 21 20 19 18 16 14 10 6 9 11 13 16 17 17 18 19 19 20 22 21 19 19 20 21 20 20 19 19 20 21 20 19 18 17 17 17 18 18 17 16
3 2 1 1 5 7 5 4 6 8 7 6 5 5 5 4 4 4 4 3 2 1 3 4 4 6 2 3 3 5 5 4 7 6 8 12 16 20 21 23 24 22 21 20 20 20 21 20 20 19 18 17 15 12 9 7 10 14 16 17 17 18 19 20 21 22 20 19 20 21 21 20 19 20 21 21 21 21 21 20 20 20 21 21 20 19
3 4 5 3 3 4 5 4 4 4 6 5 3 4 4 3 3 2 2 2 1 2 3 5 3 3 3 3 3 5 6 9 14 10 12 19 18 19 20 20 21 21 21 20 19 19 20 19 19 19 19 18 16 13 11 9 7 10 15 17 18 18 20 20 21 22 21 19 19 21 22 22 21 22 23 23 23 23 24 24 23 23 23 23 23 21
1 3 5 4 4 3 4 5 2 3 4 4 1 5 4 2 3 1 1 2 1 2 4 6 3 1 2 3 4 6 9 14 11 9 16 19 18 18 18 18 19 19 19 18 17 17 17 17 16 17 17 17 16 13 11 11 9 7 10 15 18 18 19 21 21 21 21 21 21 22 24 25 25 24 25 26 26 25 25 25 25 25 24 24 24 22
2 2 5 6 5 4 6 7 4 4 4 4 1 5 2 1 3 2 2 4 3 1 4 4 2 2 2 3 8 8 11 12 8 14 18 18 17 17 17 17 18 17 16 16 16 15 15 15 15 15 15 16 15 14 13 12 11 10 9 10 13 14 15 18 19 21 22 22 22 23 24 26 27 27 28 29 28 25 24 25 24 24 24 24 24 23
3 2 6 6 8 8 7 8 9 6 2 2 4 2 3 2 5 4 1 1 4 4 2 2 1 3 2 2 6 5 5 6 8 14 17 17 16 17 17 16 17 16 15 15 15 14 13 13 14 14 14 15 15 15 14 12 12 12 12 12 13 14 15 14 15 17 20 21 23 25 24 25 27 30 30 30 27 23 22 23 23 24 24 24 24 25
2 1 6 5 6 7 9 12 16 14 6 3 3 3 4 2 4 4 2 3 4 3 0 1 1 2 2 1 3 4 5 4 6 9 13 15 15 15 14 14 14 13 12 14 14 14 13 13 14 14 13 14 15 15 14 13 12 12 13 14 15 15 15 14 14 13 14 17 21 24 26 28 30 32 31 28 26 24 24 25 25 24 23 23 23 24
3 2 5 4 3 6 9 10 10 13 12 6 1 2 2 3 3 3 2 1 2 2 0 1 0 1 1 1 2 3 4 3 4 6 8 10 12 13 12 11 11 11 12 14 13 12 13 13 13 13 13 13 14 14 14 14 14 13 12 13 15 15 15 14 14 14 13 14 15 17 20 25 29 33 33 31 30 29 28 28 27 25 24 24 23 23
3 4 2 6 5 4 6 6 4 6 9 7 4 4 3 3 2 1 1 1 3 3 2 1 0 1 1 2 1 3 3 4 5 4 5 7 9 9 9 9 9 9 11 13 13 11 11 12 13 12 12 13 14 14 13 14 15 15 15 15 14 15 15 15 15 16 17 18 17 17 17 18 20 23 28 31 32 32 30 28 27 27 26 24 26 27
2 4 1 6 7 4 3 3 2 1 3 5 5 5 4 2 1 2 1 1 2 3 2 2 1 2 3 2 3 5 4 5 6 5 4 6 6 6 6 7 6 7 10 11 12 11 11 12 14 13 11 12 14 15 14 14 14 15 17 17 16 16 16 16 16 17 19 19 18 18 18 18 17 17 19 23 27 31 31 29 28 28 26 25 28 29
2 2 2 2 4 6 3 2 2 5 4 4 3 2 2 2 3 3 2 3 1 3 3 3 2 3 3 1 2 4 5 6 8 8 6 6 8 7 6 7 4 5 8 10 10 10 10 13 14 14 13 13 15 16 15 15 16 16 17 18 17 16 17 17 16 17 18 18 16 17 18 18 18 17 18 18 20 23 27 29 30 26 24 25 28 29
2 3 4 2 0 5 4 2 6 8 6 6 3 2 3 3 4 4 1 2 2 3 1 2 2 3 3 2 3 5 7 8 9 10 8 7 8 8 8 9 7 5 6 8 9 9 10 12 13 13 13 13 14 16 15 15 16 17 18 18 17 18 18 17 16 16 17 18 17 16 17 17 17 16 17 18 17 18 20 24 28 25 22 24 28 28
2 2 4 2 3 2 1 3 5 6 6 6 3 2 3 2 2 4 4 2 1 3 1 2 1 4 4 2 7 9 9 9 10 9 8 8 8 7 6 8 10 8 6 7 8 8 9 12 13 14 14 13 13 14 14 15 16 17 17 18 17 18 18 16 16 16 18 19 19 18 17 17 17 15 16 17 17 17 17 17 22 25 22 22 26 27
2 1 3 4 3 5 6 7 6 6 5 3 2 3 3 3 4 2 1 3 3 2 2 3 1 4 4 2 8 9 8 8 9 9 7 8 8 7 6 6 8 10 9 8 9 9 10 12 14 16 15 13 13 13 13 14 16 17 17 17 16 17 18 18 17 17 18 19 19 19 19 19 19 18 16 15 15 16 15 14 16 22 23 23 25 26
2 1 3 5 3 1 1 3 3 3 3 2 3 4 3 4 6 3 2 4 2 1 3 3 3 5 5 2 7 6 5 5 5 8 9 9 9 7 7 7 7 9 9 8 8 9 10 12 14 15 14 13 12 13 14 15 16 17 17 16 15 17 19 20 18 17 18 18 18 18 18 18 19 19 18 16 15 15 14 14 14 17 22 24 24 23
3 2 2 6 5 5 5 5 5 2 3 1 3 3 2 1 5 5 4 3 1 0 2 2 5 4 4 2 6 5 3 3 4 9 11 9 8 6 7 8 8 8 8 7 7 8 10 12 14 15 14 13 13 13 14 15 17 17 16 16 16 18 20 19 19 18 18 17 17 17 17 17 17 17 17 17 15 15 15 15 14 14 17 20 21 20
4 3 2 3 2 5 7 6 4 3 4 2 2 2 3 1 5 6 3 3 3 4 1 4 3 5 4 3 5 4 2 3 7 11 11 7 6 6 6 6 5 6 6 5 6 8 10 12 13 14 15 15 14 15 14 15 17 17 16 16 17 19 19 19 20 21 20 18 17 17 17 17 16 16 15 15 15 15 15 16 16 15 16 17 19 21
5 1 3 2 4 5 4 6 5 4 3 3 3 3 2 1 3 4 3 5 5 5 4 5 4 5 5 4 5 6 8 11 13 13 10 7 7 6 6 6 4 4 5 5 6 7 9 11 12 13 14 14 15 15 15 16 17 17 16 16 16 17 17 17 19 21 21 21 19 18 18 18 17 16 15 14 14 14 13 14 16 18 18 18 19 19
4 0 3 1 4 7 3 5 6 5 3 3 3 4 4 5 5 5 3 4 5 5 6 5 7 6 5 6 5 6 14 17 15 13 10 8 7 7 7 8 7 5 4 3 5 6 8 10 12 12 12 13 15 16 15 15 17 17 16 15 15 16 17 15 16 19 20 22 22 21 21 20 20 19 17 15 14 12 11 11 13 17 19 21 21 21
4 1 3 3 4 7 6 2 4 5 4 3 4 4 2 4 3 3 2 2 3 3 3 6 7 3 5 5 4 10 18 17 14 12 11 9 9 9 10 10 7 3 1 3 5 6 7 9 12 12 12 12 14 15 15 15 16 16 15 15 15 16 16 14 15 18 19 19 20 21 21 21 21 21 19 18 16 14 11 9 10 13 17 21 23 24
3 1 2 5 5 4 4 3 3 3 5 2 5 6 1 3 2 1 2 3 3 3 3 5 4 4 6 5 4 12 18 17 14 14 11 8 9 8 9 7 3 2 3 4 5 6 7 8 11 13 14 13 12 13 16 18 18 17 16 17 17 16 15 13 14 16 17 18 18 19 20 21 21 22 21 19 18 17 14 11 10 10 12 17 21 25
3 3 1 3 3 3 5 4 3 4 7 2 4 3 3 3 2 2 3 3 2 4 6 4 4 5 5 4 3 7 11 13 13 12 8 7 7 7 6 4 3 3 4 6 5 5 6 8 11 15 16 13 11 13 16 18 19 18 17 18 19 17 15 15 15 15 14 16 17 18 19 20 20 21 22 20 19 18 17 16 14 11 10 11 15 20
2 4 2 2 2 3 7 5 3 5 3 3 6 4 5 5 4 3 3 5 4 1 3 3 4 4 4 3 3 4 8 11 11 10 7 6 4 3 3 2 4 5 5 5 3 4 6 8 12 15 13 10 11 14 15 15 17 16 15 17 17 16 15 16 17 16 15 14 15 16 17 17 17 20 21 20 20 21 19 18 16 14 12 10 10 13
3 3 1 1 2 2 4 5 6 2 4 6 6 4 4 6 7 5 3 5 5 3 2 5 4 4 4 4 4 5 9 11 11 9 7 4 2 0 3 3 4 6 6 4 4 6 7 9 13 13 11 10 13 15 14 15 15 14 15 16 15 13 16 18 17 16 16 15 15 15 15 14 16 20 21 19 20 22 22 20 18 14 13 12 10 10
4 3 2 2 1 0 3 4 1 4 6 5 6 4 1 4 5 5 5 6 6 4 4 7 3 2 7 9 8 11 14 14 11 8 5 2 0 1 3 3 3 6 7 7 7 7 7 10 13 12 11 12 14 14 15 17 18 17 18 17 14 13 17 18 15 15 16 17 16 15 14 14 16 20 21 18 18 21 21 21 19 16 13 13 13 11
6 3 2 2 0 1 2 2 3 2 4 5 4 2 2 2 2 4 3 4 7 3 5 7 4 4 9 11 13 17 16 13 8 5 3 1 1 2 3 3 3 5 7 7 7 6 7 11 12 10 10 12 14 15 17 18 19 20 20 19 16 16 18 17 15 14 15 17 17 16 15 14 16 18 19 18 17 19 19 20 20 18 15 14 14 13
6 2 3 2 1 2 3 2 3 2 3 5 5 4 3 5 6 7 5 2 6 2 6 8 7 7 8 10 14 18 14 8 3 2 1 0 1 2 3 4 4 6 7 7 6 7 9 12 12 10 11 14 16 18 19 19 19 20 20 20 19 19 19 17 15 14 15 17 17 16 14 13 14 16 18 19 18 18 18 17 16 18 18 16 14 14
6 3 4 4 1 1 4 1 1 2 4 6 7 6 5 8 7 6 5 3 6 2 5 8 9 9 9 10 12 13 8 3 3 5 2 1 2 3 4 5 6 7 8 8 8 9 11 12 11 10 13 17 19 20 20 20 19 18 17 17 19 19 18 16 14 14 15 16 16 14 13 13 14 16 18 20 19 18 16 14 13 17 19 18 15 14
4 4 3 2 1 2 3 2 3 3 4 5 7 6 7 8 6 7 3 5 6 3 4 7 8 9 10 11 9 6 4 3 4 4 2 2 2 3 5 7 8 8 8 8 8 8 9 10 11 13 16 18 19 20 20 19 16 15 15 15 16 17 16 15 14 14 15 15 15 14 13 12 14 17 20 21 19 16 14 12 12 16 18 18 16 14
1 1 1 2 3 3 4 2 3 3 4 6 8 8 8 6 5 4 2 6 6 4 3 4 6 7 9 9 6 4 4 4 3 2 2 3 3 4 6 7 8 8 7 6 6 6 8 10 13 16 17 17 18 19 18 16 14 15 16 16 15 15 15 16 16 16 16 16 16 15 14 14 16 19 21 21 19 15 12 11 12 14 16 17 16 15
2 1 1 2 3 3 3 2 2 4 4 8 8 8 8 4 0 4 6 5 6 7 5 6 7 9 9 8 5 5 6 4 3 3 3 4 6 6 7 9 9 7 5 4 5 7 10 12 14 16 17 16 17 17 16 16 17 18 18 16 15 15 16 16 16 16 16 17 18 18 18 18 18 19 20 19 17 15 12 10 10 12 14 15 16 15
4 3 1 2 3 2 1 1 1 3 6 12 9 4 4 4 4 7 9 9 9 9 8 10 10 9 9 7 6 6 5 4 4 4 5 6 6 6 7 8 6 3 3 4 7 9 11 13 16 18 18 15 15 16 17 18 19 19 18 17 15 15 15 15 15 16 16 18 20 20 20 19 18 17 16 17 16 15 13 10 8 9 11 13 14 14
3 3 2 3 2 3 2 2 3 3 9 17 14 6 7 9 7 9 13 14 12 10 11 13 12 9 8 7 7 7 6 4 4 4 5 5 4 5 5 3 2 3 4 6 8 9 12 15 18 18 17 15 15 17 17 18 19 18 17 16 14 14 14 14 14 16 17 19 21 20 19 18 16 14 14 16 16 16 15 12 10 9 9 10 12 13
4 4 4 2 2 4 4 5 6 5 10 20 21 14 11 11 9 9 11 12 11 12 14 14 12 10 8 7 7 7 6 4 3 4 4 3 5 5 3 4 3 4 5 6 8 12 15 17 17 16 16 16 16 16 16 16 15 15 15 15 13 14 15 16 17 19 20 20 20 19 18 16 14 13 13 14 15 16 16 15 13 12 10 9 11 13
3 3 3 2 1 2 3 4 4 4 10 18 21 17 12 10 10 10 10 10 10 12 14 13 11 9 8 6 6 5 4 3 2 2 2 3 4 3 5 5 4 4 5 8 12 15 16 15 13 14 15 14 13 14 14 14 13 14 15 15 14 15 16 18 19 20 19 17 17 17 16 14 13 12 14 15 16 16 15 14 13 12 11 9 10 12
1 0 1 1 1 1 2 4 2 3 10 16 18 16 13 9 9 11 11 11 11 13 13 10 7 6 6 6 5 4 4 4 4 3 3 3 2 4 5 5 4 5 7 11 13 14 15 14 13 13 12 12 13 14 15 14 14 15 15 14 15 16 17 17 17 18 18 18 17 16 15 14 14 14 15 17 18 17 16 14 13 12 11 11 13 14
1 1 1 1 2 2 4 4 2 4 4 11 13 14 11 7 8 10 10 10 12 12 10 7 5 6 7 7 6 5 5 5 5 5 5 5 5 6 6 6 6 7 9 11 11 12 13 13 13 12 12 13 14 14 14 14 15 15 14 14 16 16 16 16 17 18 18 17 15 14 14 15 16 16 17 18 18 17 16 15 14 14 13 14 16 18
4 3 2 2 2 1 4 3 5 9 6 5 9 10 8 6 7 8 8 8 10 10 9 8 7 8 8 8 7 7 6 5 6 7 8 8 9 7 6 6 6 8 9 9 10 12 12 12 12 13 14 14 13 12 14 16 16 14 12 13 15 16 17 18 18 17 16 14 13 13 15 16 17 17 18 18 17 16 14 13 13 14 14 14 15 17
5 3 2 2 1 4 4 6 6 3 3 6 9 9 8 7 6 7 7 8 10 10 10 11 11 10 10 9 8 6 5 5 6 8 10 10 9 7 5 5 6 7 8 9 10 11 12 12 13 14 15 13 11 12 15 17 16 13 12 13 15 17 17 17 17 16 14 13 13 15 17 18 18 17 17 17 17 16 14 13 12 13 13 14 14 14
7 7 5 6 4 5 7 10 8 5 7 10 11 8 7 6 5 7 8 9 10 12 11 12 13 13 11 9 7 6 5 5 6 8 11 11 9 6 4 4 5 7 8 8 9 12 13 14 14 15 15 12 10 12 15 16 16 15 14 15 17 18 18 16 15 15 14 14 15 16 17 18 17 16 15 15 16 16 17 16 15 12 12 13 13 12
Wind_Direction
143 69 346 261 271 28 58 79 106 94 80 86 80 65 54 49 17 14 13 18 65 70 53 66 68 56 49 43 37 45 57 68 78 95 106 113 118 122 127 132 138 143 150 158 166 172 173 175 177 178 180 180 179 181 183 186 193 198 196 191 185 183 182 185 185 182 180 178 178 176 178 188 191 195 208 207 204 212 216 222 269 282 259 209 188 188
103 76 355 251 108 78 67 64 67 58 56 60 62 47 35 49 11 360 17 20 72 83 54 66 69 55 52 48 45 49 53 53 61 77 88 99 109 119 126 131 137 143 151 159 167 174 174 172 178 183 181 176 178 184 186 190 198 200 196 192 185 181 180 179 182 180 178 182 187 185 187 196 202 213 245 264 260 261 278 287 279 272 254 170 146 155
57 50 360 48 74 72 51 40 50 48 56 52 48 60 25 22 352 345 22 28 67 83 53 61 72 55 43 51 51 51 54 53 60 74 86 95 102 112 123 131 139 145 154 161 164 173 178 177 181 191 185 172 178 189 190 192 198 199 195 194 187 181 179 177 178 177 178 185 193 201 206 211 217 226 252 278 293 293 292 294 278 252 268 53 92 107
63 350 30 59 59 63 47 25 38 36 44 44 41 85 8 341 68 13 10 45 78 106 110 72 72 61 36 45 50 52 57 55 58 69 77 86 91 93 104 119 135 145 152 157 162 169 176 180 184 196 194 178 178 191 192 191 193 195 197 200 190 184 185 182 180 181 186 189 192 203 210 218 231 243 251 256 274 278 271 265 252 241 233 154 82 89
105 306 60 69 57 69 67 22 35 40 10 352 32 112 152 13 110 182 134 63 72 117 139 112 68 45 23 43 44 48 59 56 57 64 67 74 82 93 106 115 130 138 140 149 161 164 169 176 180 195 209 199 188 187 190 192 195 196 200 201 194 193 195 195 193 190 189 188 189 199 209 216 223 236 243 240 251 261 250 235 230 230 221 208 164 115
72 38 67 73 54 65 74 18 27 80 36 342 287 185 171 125 121 188 104 78 42 57 171 141 80 28 348 36 40 34 57 57 59 64 65 69 72 79 91 97 99 92 90 110 134 148 167 181 184 203 220 212 201 192 193 199 202 204 207 204 197 199 201 201 201 197 194 195 197 205 217 223 228 239 248 248 253 254 243 228 222 224 222 211 204 191
43 37 60 79 67 56 51 10 349 73 92 2 287 225 106 79 49 30 100 92 84 300 311 64 107 128 315 16 9 12 57 57 56 61 62 67 68 67 72 75 77 75 72 72 70 71 70 289 252 239 234 228 222 208 204 206 208 212 217 213 205 204 205 204 204 202 199 203 207 213 221 229 237 246 255 255 251 246 237 227 221 223 221 211 204 203
51 35 37 52 57 52 39 12 332 17 97 317 288 77 83 81 67 61 95 92 145 169 357 29 101 117 16 355 322 347 56 53 43 50 52 58 64 71 80 82 80 78 74 69 63 59 51 35 18 325 276 258 251 239 223 215 215 221 226 226 220 215 212 209 209 209 207 210 215 219 224 231 238 244 253 254 247 240 230 220 219 220 214 208 203 202
91 60 48 50 51 49 23 350 330 37 92 300 288 108 104 108 95 82 94 101 124 95 15 348 90 94 25 331 315 346 51 48 32 37 46 57 63 71 81 85 84 80 71 65 61 57 54 49 42 16 311 266 251 248 241 228 224 227 229 233 232 229 224 217 214 217 218 219 220 223 226 229 234 240 247 248 243 239 229 217 217 220 217 211 206 207
84 97 84 78 62 42 308 333 360 53 93 290 311 87 76 71 66 68 92 97 72 65 357 298 50 102 70 319 319 357 44 30 11 21 44 59 62 64 68 71 80 81 69 63 59 53 49 45 42 33 353 264 243 240 238 231 228 231 235 237 236 236 232 224 221 227 234 233 229 228 228 227 228 232 236 237 236 237 235 226 221 221 222 219 214 212
71 85 69 71 84 89 79 34 22 30 41 26 43 46 42 36 29 40 58 68 69 49 328 317 39 100 129 293 296 334 38 330 345 26 39 55 56 56 58 57 66 78 68 58 54 49 43 40 39 36 26 356 277 250 244 237 231 232 236 238 239 238 236 232 228 228 236 239 236 237 237 233 229 228 231 234 234 236 237 234 230 227 225 224 220 218
29 71 61 73 86 70 61 41 15 11 24 46 46 42 43 10 9 25 3 29 72 19 296 335 45 75 93 221 260 296 303 297 12 39 45 55 54 56 57 55 60 68 63 54 50 46 40 35 33 32 30 25 13 323 279 259 243 238 236 236 238 237 241 245 240 234 232 231 232 237 241 240 237 232 232 235 239 241 241 240 240 237 231 225 221 221
15 69 349 100 72 61 65 45 2 0 20 44 48 54 58 15 14 27 350 16 78 269 312 344 32 68 65 242 258 303 309 320 336 360 60 68 60 59 57 54 57 59 55 51 47 43 39 33 29 26 25 25 23 16 353 309 265 250 242 242 242 238 242 249 247 243 240 235 235 236 235 236 240 239 239 242 245 247 248 248 248 245 237 227 223 223
345 333 341 4 19 33 71 60 11 358 14 26 49 80 81 62 52 22 322 20 358 262 323 344 28 64 327 279 255 277 296 325 333 354 60 68 62 59 55 51 53 52 49 47 45 43 40 36 32 25 21 21 21 22 17 3 320 269 251 250 251 247 245 246 246 245 245 246 246 244 240 239 241 241 243 246 248 250 250 251 253 252 245 234 229 228
33 330 345 2 337 341 48 46 68 104 32 1 106 108 92 112 112 128 204 148 200 253 324 349 35 94 271 266 265 280 312 332 352 43 63 62 58 55 49 45 47 47 45 42 38 39 40 40 38 29 22 19 18 17 16 12 358 316 277 265 263 259 253 249 246 245 245 245 246 247 245 244 244 243 243 245 248 251 253 256 258 259 254 243 235 231
78 274 306 346 5 36 45 22 34 91 48 345 60 85 46 193 136 102 162 166 163 87 357 5 29 249 237 275 291 305 327 338 35 67 57 55 56 51 47 42 41 42 40 36 32 29 32 39 40 31 23 19 16 13 8 1 357 347 329 306 295 292 281 263 251 247 249 247 246 249 247 245 246 245 246 246 242 241 244 251 260 264 260 251 242 234
52 297 300 349 22 37 51 42 37 54 91 346 33 39 272 220 124 108 96 88 79 77 16 10 351 306 329 314 305 330 353 354 48 59 52 56 57 52 50 43 37 38 38 32 27 24 22 28 31 27 21 18 15 12 6 356 350 346 341 334 328 328 323 305 281 269 264 255 252 255 252 251 250 249 253 254 245 236 235 241 250 258 260 258 249 238
113 289 308 360 26 2 27 57 49 38 56 93 34 309 281 1 72 96 92 15 44 79 322 17 56 314 359 345 323 25 49 30 39 52 54 56 59 58 52 43 39 38 34 24 22 30 30 23 22 22 18 16 14 11 9 6 355 345 341 337 334 336 339 334 322 310 292 272 266 263 258 256 257 259 267 271 263 253 246 243 243 245 250 256 253 244
92 91 304 344 10 334 7 55 50 24 37 73 72 317 64 63 21 41 80 69 75 107 149 34 17 310 77 237 317 44 63 58 48 52 54 50 58 60 48 41 39 30 23 17 21 39 41 30 20 16 15 16 15 10 10 14 10 2 355 344 338 337 339 338 334 330 324 311 303 294 279 270 268 268 271 273 270 263 253 247 244 240 241 247 249 246
74 102 286 323 336 334 10 39 33 357 17 34 20 14 54 118 136 86 94 122 122 134 149 146 235 285 235 240 187 123 126 106 82 58 52 49 55 61 52 44 35 21 20 22 28 42 42 31 18 11 14 17 16 9 4 9 13 13 11 4 356 350 344 342 338 334 334 332 327 325 318 306 295 282 271 266 264 264 258 250 245 242 240 243 243 241
55 87 50 326 340 22 29 7 30 54 31 35 37 26 9 3 73 87 60 45 106 122 136 152 176 253 250 241 160 150 150 128 116 106 80 59 62 72 59 46 32 21 25 28 35 38 32 24 18 14 15 14 13 11 5 4 6 7 9 11 12 10 1 354 348 344 345 342 334 330 330 325 320 311 292 274 265 264 260 251 246 243 241 243 240 234
48 86 94 347 4 68 77 326 59 92 97 94 93 70 49 52 69 76 26 334 47 113 150 163 160 249 248 202 168 163 149 141 130 117 99 75 75 77 51 36 21 4 19 31 36 32 25 25 24 19 14 8 5 6 5 3 5 6 5 5 9 13 11 6 1 356 353 351 345 338 334 330 325 321 314 301 284 276 268 254 246 244 240 239 238 234
103 99 83 45 17 122 124 66 72 85 90 89 87 97 99 82 90 110 142 283 2 47 63 129 117 261 251 167 173 162 141 140 136 125 116 97 84 71 45 34 26 1 3 22 31 34 33 30 25 16 8 2 357 360 2 1 2 4 2 1 4 6 5 2 359 356 351 349 348 343 338 333 328 322 316 315 308 300 289 267 251 245 239 235 234 232
44 65 61 23 311 309 325 1 50 64 68 68 29 34 87 78 107 146 169 170 45 7 7 82 67 272 271 158 158 155 139 142 146 141 127 107 88 64 48 37 33 35 32 32 40 44 35 23 14 5 360 359 358 357 359 358 357 359 357 357 0 2 1 357 351 346 343 342 342 340 335 330 327 322 313 313 315 312 309 290 261 248 243 237 233 228
22 52 68 65 1 349 344 345 3 8 30 70 352 356 68 67 62 73 80 80 46 350 100 104 166 255 280 143 154 159 152 154 153 142 124 106 93 71 58 46 44 58 64 57 49 34 21 13 4 360 360 5 9 6 2 358 352 352 352 351 354 357 357 354 350 344 341 340 339 338 338 335 330 324 315 309 311 310 309 304 278 254 245 241 238 231
80 104 92 104 103 63 352 314 296 315 353 27 338 355 40 59 66 71 58 68 43 340 82 115 193 255 297 141 159 179 171 167 153 125 111 100 91 77 65 63 64 70 65 52 41 26 18 11 3 2 7 11 13 9 7 2 354 352 354 355 356 357 356 354 351 346 343 341 341 341 343 343 337 330 323 314 307 304 299 297 290 267 250 246 245 237
86 67 96 129 149 176 193 226 222 162 63 359 318 340 335 55 86 93 88 93 141 118 67 190 188 210 280 189 172 205 198 180 147 113 107 101 98 89 82 81 74 67 58 46 36 22 12 7 5 10 13 13 13 11 9 7 1 359 360 1 3 3 0 360 360 357 351 346 346 348 347 344 339 333 329 323 314 305 294 287 288 281 266 259 260 257
83 28 351 105 158 212 201 214 216 135 118 196 254 320 298 293 84 86 115 177 147 100 341 276 193 170 241 225 178 198 193 156 142 127 122 129 127 107 99 102 85 65 58 46 29 14 6 4 7 11 11 10 11 10 10 8 4 6 7 6 6 4 2 4 6 5 2 357 354 354 352 346 340 335 333 331 323 315 303 289 281 278 274 269 267 269
100 65 298 359 323 285 228 205 194 137 141 201 218 235 246 212 124 115 171 193 138 126 213 245 166 169 227 231 197 185 160 150 149 144 145 154 144 124 127 136 117 86 74 49 24 8 359 358 0 4 6 6 4 3 5 5 3 7 11 8 6 4 1 2 4 5 6 7 3 360 358 356 350 344 338 334 330 326 316 297 279 269 267 266 265 264
95 231 278 4 342 322 303 205 179 133 144 229 258 241 205 185 171 147 175 198 134 142 197 179 147 175 215 218 215 172 150 148 147 148 155 153 135 120 130 132 118 108 92 35 0 344 342 345 348 352 356 359 358 357 1 3 0 1 4 4 4 2 0 1 3 5 7 9 8 5 4 2 358 354 347 341 337 331 321 305 286 271 263 261 262 261
72 300 287 65 33 338 335 239 181 126 142 222 301 302 196 151 129 111 157 193 118 132 179 137 134 192 233 217 175 138 146 150 148 156 163 147 122 110 123 129 117 100 25 343 328 324 328 333 341 346 348 350 353 355 357 356 354 354 357 0 357 353 356 4 9 9 6 4 4 4 4 1 359 359 356 350 347 344 333 315 295 278 267 261 260 262
68 16 337 61 57 320 317 307 292 42 74 40 324 317 241 144 119 138 218 210 173 172 153 121 139 222 238 225 141 135 152 159 158 163 161 139 118 109 123 132 101 1 338 341 330 326 334 336 342 345 345 345 350 353 351 350 350 347 349 355 351 342 344 357 8 9 5 3 0 358 360 0 357 358 359 354 352 352 349 338 320 299 279 266 261 261
105 92 43 73 68 283 289 301 297 42 52 358 283 263 199 155 106 33 324 293 212 157 145 161 212 222 215 208 142 135 161 168 164 162 152 135 122 105 113 114 40 360 337 344 342 337 338 337 341 342 342 346 351 349 345 345 347 343 342 348 347 339 337 343 351 352 351 356 357 353 355 357 355 356 359 357 354 352 349 343 334 325 307 284 269 263
89 98 140 129 99 275 290 321 27 54 48 253 244 206 173 159 127 91 333 293 278 239 174 188 213 208 189 181 165 172 183 174 161 151 135 132 134 99 79 65 29 7 349 341 332 328 332 335 343 346 347 347 347 345 343 341 343 343 342 344 343 341 344 347 348 346 340 340 346 349 350 352 353 355 358 0 360 356 350 344 337 331 326 312 288 273
78 93 140 115 105 257 310 19 47 35 237 244 277 272 170 139 124 101 352 310 304 298 172 137 159 184 149 115 131 160 161 151 140 133 126 125 154 79 17 12 7 6 10 1 327 327 334 337 344 349 351 346 341 341 341 339 341 342 342 344 343 346 354 354 352 352 351 343 338 340 345 349 350 348 350 355 358 356 354 351 345 336 328 325 317 302
126 130 126 87 99 337 11 32 59 249 254 282 317 301 138 90 79 66 15 332 317 300 167 148 166 151 102 99 119 138 141 137 129 128 128 105 79 304 349 348 342 345 348 342 332 333 336 338 341 344 341 335 334 335 334 335 337 337 338 341 340 340 348 352 347 348 355 354 344 335 337 345 345 341 340 343 347 348 350 352 352 345 331 326 327 320
134 133 105 69 56 119 80 298 275 293 300 308 310 268 153 125 161 131 97 308 306 323 130 137 143 122 108 111 131 142 141 133 124 132 140 126 263 290 324 331 334 329 325 322 321 319 324 330 333 333 327 324 325 329 331 333 334 335 337 339 340 339 344 348 345 341 347 354 348 334 330 339 342 337 334 333 335 339 341 343 350 352 343 331 327 322
119 133 138 105 11 98 96 343 333 358 295 261 252 248 165 146 163 139 110 299 294 327 120 132 145 143 123 117 140 151 143 115 116 206 201 184 264 293 309 308 318 318 306 299 302 305 313 320 320 316 317 322 324 326 329 333 335 335 335 336 339 343 344 344 344 341 344 352 349 335 329 337 339 334 330 326 325 330 334 336 343 350 349 340 330 322
77 62 98 96 37 89 107 128 240 237 249 239 238 238 168 145 143 109 79 298 274 244 138 141 151 156 143 132 147 156 140 107 229 231 251 328 297 297 298 299 307 305 297 298 304 306 309 312 311 309 316 324 326 326 327 330 333 334 334 335 335 338 341 344 347 346 346 348 344 332 329 337 337 332 329 325 320 322 326 329 336 345 346 341 335 329
64 36 60 103 199 164 136 169 229 233 237 231 229 215 166 146 120 80 43 268 247 213 158 145 149 162 158 145 143 144 136 176 220 239 281 290 280 288 299 308 309 303 299 300 301 301 305 310 315 319 325 329 329 327 327 329 333 337 340 340 337 336 339 344 344 342 342 344 340 330 324 331 336 335 331 328 323 319 318 324 335 341 343 341 338 335
60 36 129 160 175 162 156 191 259 261 239 225 217 189 154 124 83 86 212 235 212 179 171 152 145 157 160 156 155 160 164 178 202 235 242 254 282 291 305 319 310 297 294 295 295 302 312 317 322 326 329 330 328 327 329 333 340 342 341 342 343 343 345 344 338 334 335 339 340 333 326 327 332 332 329 327 327 325 318 318 329 337 341 344 342 337
197 148 158 159 161 169 167 175 263 287 233 198 187 170 148 120 77 207 199 187 164 157 156 157 156 157 160 160 155 155 159 170 202 222 244 289 303 300 306 313 306 289 277 285 304 316 319 321 325 327 328 328 329 332 336 338 340 340 338 339 342 347 347 343 336 332 332 334 336 334 332 330 329 328 323 319 324 332 328 317 320 331 339 345 345 340
179 166 221 213 182 162 68 96 36 302 226 188 164 133 155 179 200 191 177 170 176 178 170 166 165 162 164 165 160 163 176 200 227 251 288 306 309 310 309 307 302 277 259 291 310 317 321 325 330 333 332 331 334 339 340 339 339 339 337 337 339 344 343 337 333 331 330 331 334 334 334 332 329 324 316 312 318 330 336 334 332 336 342 345 344 341
187 169 203 240 196 138 111 191 206 222 199 186 179 188 209 204 197 182 177 181 190 195 185 175 168 166 173 176 173 182 201 221 244 281 310 317 314 317 308 277 230 250 281 302 312 317 324 330 335 341 342 339 340 340 339 340 341 340 341 341 342 343 340 334 331 330 329 330 333 333 332 330 328 323 316 314 316 320 326 330 332 338 347 346 339 336
223 192 179 197 199 174 187 218 221 211 192 190 197 212 214 201 198 194 192 194 196 198 194 182 170 170 178 182 181 189 205 222 256 303 326 330 318 307 264 206 225 278 298 311 317 325 333 336 342 350 349 342 340 338 338 343 346 345 346 346 346 346 343 337 332 330 330 331 332 332 332 331 331 330 327 323 320 320 324 323 319 322 332 334 329 329
223 187 152 151 280 279 255 240 225 214 204 200 207 219 219 208 205 201 203 208 203 198 195 188 179 178 185 198 205 206 219 237 266 308 315 316 310 268 217 221 259 290 310 321 329 337 342 343 344 345 342 337 335 334 336 341 345 345 344 344 345 346 343 337 334 333 334 334 333 335 337 335 334 334 332 330 329 330 331 328 318 316 319 316 313 314
279 82 122 135 56 15 274 283 312 254 225 216 212 215 218 224 224 217 219 221 205 193 190 187 185 191 200 216 227 222 230 247 259 272 285 291 269 227 226 253 283 306 322 334 342 344 344 342 338 334 331 328 330 331 332 334 338 339 339 340 343 344 341 339 338 338 338 339 340 343 342 339 337 335 334 334 335 335 334 329 317 309 313 317 314 310
258 170 176 190 172 179 242 272 32 79 206 216 213 214 217 221 218 212 214 209 195 189 192 195 206 218 214 215 225 231 243 259 256 248 254 257 248 245 256 272 294 318 331 341 345 340 341 345 342 336 331 328 329 331 334 337 341 339 336 338 341 340 339 341 343 343 344 347 350 351 349 344 341 337 334 336 337 336 336 331 317 305 306 314 315 312
153 173 208 191 185 269 281 242 111 86 86 150 178 189 189 174 172 178 186 197 197 194 197 203 215 226 222 217 225 234 246 258 246 233 239 245 244 247 258 278 305 324 333 339 338 334 338 343 340 338 336 331 330 337 342 343 345 344 342 343 344 343 343 343 345 349 355 0 1 356 350 345 341 337 335 334 334 335 339 339 329 318 310 307 307 307
147 201 206 136 193 274 248 204 178 124 116 158 159 160 165 166 167 174 189 208 210 199 195 201 208 213 218 224 232 240 251 267 260 243 238 240 242 246 262 291 313 324 330 334 333 332 336 337 338 342 340 332 331 340 343 344 345 346 343 340 343 351 353 349 347 353 2 7 2 353 347 343 342 341 337 333 332 333 336 338 335 327 318 311 306 302
211 232 200 170 204 233 207 194 191 175 171 175 172 173 186 195 201 202 204 211 211 206 209 216 216 214 218 226 233 240 254 275 274 251 239 240 245 251 266 293 313 322 330 336 335 336 338 338 341 345 340 330 331 339 342 343 344 343 339 335 339 350 356 354 351 355 3 5 358 352 349 347 346 345 342 337 335 335 335 336 335 331 322 315 309 304